Regional Weather Roundup
Issued by NWS Cleveland, OH

Home | Current Version | Previous Version | Text Only | Print | Product List | Glossary Off
Versions: 1 2 3 4 5 6 7 8 9 10 11 12 13 14 15 16 17 18 19 20 21 22 23 24 25 26 27 28 29 30 31 32 33 34 35 36 37 38 39 40 41 42 43 44 45 46 47 48 49 50

000
ASUS41 KCLE 030702
RWRCLE
OHIO REGIONAL WEATHER ROUNDUP
NATIONAL WEATHER SERVICE CLEVELAND, OH
300 AM EDT WED JUN 03 2015

NOTE: "FAIR" INDICATES FEW OR NO CLOUDS BELOW 12,000 FEET WITH NO
SIGNIFICANT WEATHER AND/OR OBSTRUCTIONS TO VISIBILITY.

OHZ001>008-015>018-024>027-034-035-043-044-030800-
   NORTHWEST OHIO

CITY           SKY/WX    TMP DP  RH WIND       PRES   REMARKS
DEFIANCE       CLEAR     51  46  83 E5        30.11F
FINDLAY        CLEAR     52  49  89 E5        30.10F
TOLEDO EXPRESS CLEAR     48  46  93 CALM      30.11F
TOLEDO EXEC    CLEAR     54  48  80 E3        30.11F
LIMA           PTCLDY    51  48  89 E5        30.10F
$$

OHZ009>014-019>023-028>033-038-089-030800-
   NORTHEAST OHIO

CITY           SKY/WX    TMP DP  RH WIND       PRES   REMARKS
CLE-HOPKINS    CLEAR     52  49  89 CALM      30.13F
CLE-LAKEFRONT  CLEAR     56  47  71 CALM      30.11F
CUY CO. ARPT   NOT AVBL
LORAIN-ELYRIA  CLEAR     50  49  96 CALM      30.12F FOG
ASHTABULA      NOT AVBL
AKRON-CANTON   PTCLDY    54  50  86 E5        30.12F
WOOSTER        CLEAR     51  50  96 CALM      30.12F
MANSFIELD      NOT AVBL
YOUNGSTOWN     PTCLDY    48  48 100 E7        30.14R
$$

OHZ042-051>053-060>062-070>072-077>081-030800-
  SOUTHWEST OHIO

CITY           SKY/WX    TMP DP  RH WIND       PRES   REMARKS
CINC-COVINGTON CLEAR     56  51  84 E3        30.07F
CINC-LUNKEN    CLEAR     51  51 100 CALM      30.08F FOG
HAMILTON       CLEAR     50  49  96 CALM      30.09F
DAYTON         PTCLDY    54  52  93 E6        30.10F FOG
WRIGHT-PAT AFB PTCLDY    52  51  95 CALM      30.09F
DAYTON GENERAL CLEAR     50  49  96 NE6       30.07F FOG
WILMINGTON     CLOUDY    55  52  89 NE5       30.08F FOG
$$

OHZ036-037-039>041-045>050-054>059-063>069-073>076-082>088-030800-
  CENTRAL AND SOUTHEAST OHIO

CITY           SKY/WX    TMP DP  RH WIND       PRES   REMARKS
COLUMBUS       CLOUDY    59  53  80 CALM      30.09F
OSU AIRPORT    CLOUDY    58  54  86 CALM      30.09F
BOLTON FIELD   NOT AVBL
RICKENBACK AFB NOT AVBL
NEWARK         CLOUDY    60  54  80 NE3       30.09S
MARION         MOCLDY    55  52  89 NE5       30.11F
LANCASTER      CLOUDY    59  54  83 CALM      30.09F
ZANESVILLE     NOT AVBL
NEW PHILLY     NOT AVBL
$$


USA.gov is the U.S. government's official web portal to all federal, state and local government web resources and services.